Location: Franzen
(48.6167°N, 15.3833°E)
Time: 10:28:22
(UTC+00:00)

Cosmos 1151 Rocket - Pass Details

Date: 22 April 2021
Orbit: 593 x 614 km, 82.5° (Epoch: 16 May)

Event Time Altitude Azimuth Distance (km) Brightness Sun altitude
Exits shadow 22:34:17 44° 341° (NNW) 847 4.1 -28.7°
Drops below altitude 10° 22:37:26 10° 4° (N) 1,967 6.6 -28.7°
Sets 22:39:41 0° 8° (N) 2,879 7.7 -28.7°
